Location: Jackson Park
(37.2862°N, 79.9123°W)
Time: 08:36:04
(UTC+00:00)

SR - Pass Details

Date: 21 May 2026
Orbit: 567 x 853 km, 66.7° (Epoch: 11 June)

Event Time Altitude Azimuth Distance (km) Brightness Sun altitude
Rises 12:29:09 0° 266° (W) 3,050 ? 26.3°
Reaches altitude 10° 12:33:15 10° 301° (WNW) 2,218 ? 27.1°
Maximum altitude 12:34:51 11° 319° (NW) 2,156 ? 27.4°
Drops below altitude 10° 12:36:30 10° 338° (NNW) 2,282 ? 27.8°
Sets 12:40:56 0° 11° (N) 3,290 ? 28.6°
